Presure
196 189 186 186 187 188 189 158 158 160 202 168 168 223 222 218 190 226 214 201 184 220 204 197 200 198 198 209 200 189 179 173 145 175 174 185 184 153 159 134 153 151 144 142
159 159 160 159 157 157 158 163 164 169 177 177 203 221 217 201 200 222 200 186 188 181 200 196 200 197 193 206 207 182 189 180 152 143 178 181 195 178 151 195 152 152 151 145
169 164 163 154 160 165 170 173 178 179 209 222 219 216 209 196 219 208 184 188 173 202 208 196 189 198 202 209 199 190 184 173 160 191 178 190 172 153 167 159 158 147 149 152
196 180 176 110 185 190 186 186 205 227 221 221 218 208 203 189 225 190 176 159 176 179 195 204 192 194 182 206 203 183 177 175 179 153 178 207 150 194 186 158 157 160 139 156
243 199 195 195 193 189 235 230 224 216 217 219 210 208 186 224 205 186 168 179 178 179 197 202 211 187 186 185 193 196 185 179 174 162 147 155 173 153 172 179 219 163 151 151
199 217 196 200 237 227 221 216 211 208 208 208 192 218 247 190 176 177 178 180 184 193 196 195 215 185 188 183 199 204 195 176 179 172 218 144 166 159 160 162 182 198 166 165
233 234 213 223 217 212 206 204 200 198 189 215 214 200 187 194 187 189 189 195 196 192 203 198 197 202 192 193 187 185 194 189 201 171 163 187 154 150 136 165 163 177 148 165
224 217 216 210 207 199 195 196 205 227 214 194 209 190 193 157 148 202 202 204 206 202 200 201 201 196 187 202 196 196 186 199 195 181 176 162 152 170 159 140 163 166 163 158
211 206 202 213 225 217 210 208 199 200 196 194 157 160 195 163 164 165 154 155 157 160 196 205 204 206 201 198 190 206 187 185 197 194 177 195 188 210 161 152 163 155 162 152
213 207 199 199 189 169 168 170 171 173 171 168 168 171 170 168 171 165 166 175 172 171 167 157 154 188 209 215 205 202 206 207 192 183 182 185 187 201 160 160 157 156 131 131
195 159 156 152 150 149 150 154 154 153 151 148 142 147 160 158 163 153 148 160 165 168 167 156 154 148 150 156 184 205 209 202 216 221 205 181 189 175 202 171 168 162 157 168
158 160 163 166 166 166 165 161 156 168 155 172 171 171 170 161 157 169 158 171 154 158 157 155 149 161 162 172 170 157 207 206 215 201 211 221 204 193 181 183 189 173 168 167
148 164 168 170 171 169 168 169 170 171 169 163 159 162 171 183 172 166 147 168 175 171 175 187 188 186 199 179 157 148 182 166 186 202 209 226 215 224 197 188 175 163 207 193
162 168 168 173 171 168 162 165 165 166 170 174 175 177 173 173 113 162 148 153 162 190 175 219 202 192 156 152 143 148 155 151 191 200 202 206 211 211 218 221 199 181 176 163
166 162 165 151 160 161 155 167 171 170 173 172 177 187 192 172 173 144 182 201 202 199 170 229 179 153 136 154 137 142 139 156 151 196 184 210 202 202 211 208 229 206 192 177
159 160 160 164 168 168 174 182 184 129 104 187 188 193 197 192 188 184 192 210 233 165 96 135 140 178 173 129 133 137 151 174 173 140 187 197 208 195 203 199 210 222 227 208
160 166 165 176 181 178 161 187 175 144 205 207 198 199 193 175 182 196 143 177 164 140 142 159 150 104 119 147 135 155 143 152 149 171 201 189 194 199 197 206 197 200 212 221
177 181 180 176 187 194 207 137 206 200 202 200 167 199 197 190 208 210 188 167 171 164 133 136 112 198 130 120 296 168 218 176 154 156 213 195 187 191 197 202 199 199 182 199
182 190 199 209 212 201 193 198 198 195 247 255 262 265 259 229 213 213 230 153 213 167 142 171 142 138 143 204 130 175 237 211 204 200 189 129 186 198 189 192 192 201 209 202
198 205 204 192 164 195 226 233 197 323 325 354 446 352 363 258 255 251 253 163 139 239 130 160 143 163 158 153 153 139 107 133 108 157 215 216 187 143 210 185 196 199 212 224
199 193 188 195 194 187 261 324 326 261 319 322 353 325 309 313 353 276 256 158 149 143 175 153 124 144 167 153 172 167 140 223 206 161 183 206 187 193 205 196 167 198 202 215
185 185 190 192 247 230 329 335 302 300 311 246 311 331 315 307 314 350 328 180 137 106 162 210 149 160 186 173 182 178 148 155 160 213 181 232 185 188 173 153 198 210 190 194
188 188 202 228 226 294 286 267 266 260 264 272 296 311 351 307 332 121 321 258 177 157 206 158 169 158 137 153 145 145 161 152 164 152 173 181 145 206 189 186 183 186 217 170
186 198 187 234 248 271 282 261 252 254 266 260 259 239 308 376 311 124 285 308 291 283 106 170 212 167 219 165 144 169 131 160 162 174 216 198 199 197 157 132 196 172 171 187
195 200 207 230 261 260 263 265 265 272 270 268 263 267 273 295 349 369 308 329 195 243 184 172 177 238 181 190 174 96 161 173 128 172 188 216 185 180 203 223 130 208 182 172
203 185 224 205 285 295 267 243 248 241 247 257 252 264 267 269 285 303 356 185 352 347 349 346 259 182 144 228 174 222 179 190 212 211 171 203 215 209 196 242 215 156 206 192
Wind_Speed
37 37 37 37 37 36 37 28 30 34 35 33 33 28 25 20 16 11 12 14 15 15 11 6 7 11 9 17 25 23 25 25 11 23 25 28 32 26 26 9 22 18 16 17
30 29 28 27 27 28 29 29 32 36 34 32 25 21 19 16 15 10 11 13 12 11 10 7 14 14 15 15 25 24 25 27 17 11 26 29 31 30 22 29 22 22 18 16
34 32 29 28 32 33 32 31 32 33 25 21 19 18 17 14 12 11 13 11 13 11 13 12 14 12 11 15 23 26 25 25 23 26 26 24 25 23 28 30 30 17 19 20
32 34 32 8 32 32 29 30 24 17 21 19 17 14 14 13 13 12 12 16 12 12 14 15 16 14 10 15 25 25 25 25 25 19 27 28 19 28 26 30 31 31 16 25
21 29 28 27 28 28 14 15 14 18 20 14 14 11 15 12 12 12 14 12 13 13 15 16 23 13 12 15 20 27 27 26 26 24 19 17 26 23 24 24 21 34 28 26
25 21 26 25 12 14 14 15 15 18 14 11 17 9 8 16 14 15 14 14 13 15 15 17 18 17 16 17 19 22 25 26 28 28 30 17 25 24 24 27 25 30 32 35
15 12 18 16 15 15 15 15 15 15 11 15 16 15 19 16 16 16 15 14 13 13 13 15 16 24 23 20 20 23 27 28 27 29 30 28 24 19 15 26 30 31 25 32
13 17 16 14 15 14 14 15 16 12 13 12 14 14 18 11 10 15 16 14 10 9 14 13 15 18 19 26 25 24 24 27 27 31 31 32 28 34 29 18 30 31 33 32
14 14 14 13 11 12 12 12 14 13 12 14 13 13 15 12 13 5 12 15 12 12 13 15 16 20 21 22 24 30 28 28 29 30 33 32 36 32 31 29 31 27 32 24
11 11 12 11 12 10 11 13 14 14 14 14 12 19 14 13 12 9 9 7 11 8 11 12 12 15 22 25 25 27 30 34 33 33 33 37 36 39 38 36 35 32 14 15
11 14 15 17 17 20 22 21 22 21 22 21 21 22 20 17 15 11 16 12 16 11 10 15 15 14 15 14 17 27 30 33 35 38 40 40 41 42 44 45 45 42 36 44
17 19 20 20 20 25 24 26 27 25 26 26 25 22 23 23 18 19 20 20 17 18 15 16 22 19 19 23 22 19 28 33 36 39 40 41 45 47 47 46 50 52 47 45
21 21 23 23 24 28 30 31 33 31 32 32 32 25 29 29 20 19 27 23 19 18 26 22 20 25 25 26 24 26 33 31 30 39 41 42 44 46 51 52 50 46 50 54
23 23 27 30 29 31 35 37 36 36 37 40 41 40 27 27 18 27 28 25 23 17 23 26 24 33 29 26 28 39 41 40 43 38 43 45 46 47 47 51 55 53 51 47
26 28 30 37 40 38 42 43 47 45 43 42 51 55 42 35 34 32 26 21 15 18 26 25 18 27 36 41 36 33 30 64 48 47 46 47 50 50 48 49 49 55 56 54
33 35 37 43 45 50 53 51 50 21 12 52 50 59 52 45 42 39 24 20 35 46 15 21 20 25 68 35 37 38 74 77 86 41 77 50 49 50 52 48 47 48 50 55
37 42 46 50 52 54 44 58 51 39 63 60 58 60 60 49 45 39 36 47 55 38 32 62 62 20 38 86 59 103 73 84 60 87 53 58 52 49 49 52 50 47 47 46
43 45 48 49 55 61 59 35 68 71 70 69 49 63 64 64 62 55 34 48 60 61 15 33 9 48 99 48 54 41 57 90 73 66 51 56 55 53 50 49 49 49 45 44
45 50 54 56 57 60 63 68 68 71 73 75 77 77 74 74 64 67 65 48 55 73 50 78 40 54 89 47 49 84 71 66 74 76 65 34 55 53 54 54 47 46 48 44
52 53 54 57 46 64 67 72 36 57 49 46 43 42 54 74 80 80 78 69 46 68 32 84 44 72 100 88 77 55 32 37 21 60 54 52 56 35 50 58 53 46 42 42
51 54 56 61 62 62 61 48 43 40 48 46 34 44 59 58 62 79 81 63 59 45 85 58 28 42 67 61 116 104 46 59 65 62 58 58 48 56 56 56 44 45 36 35
54 55 60 62 63 65 38 30 27 32 35 29 37 35 51 54 58 64 66 80 47 30 72 85 31 46 65 68 55 54 58 58 51 57 51 57 56 57 53 40 48 47 40 30
58 60 64 67 62 44 23 31 29 34 33 32 27 28 31 42 49 20 72 82 86 65 79 62 81 53 35 62 38 43 50 60 55 53 56 56 43 61 61 56 46 41 45 35
55 63 62 65 65 42 25 32 35 34 32 31 28 25 23 25 43 25 60 59 70 73 25 78 79 69 91 55 47 72 43 60 66 68 76 77 71 64 51 37 56 43 44 49
57 60 63 63 62 45 33 28 25 28 32 27 27 27 26 20 19 34 50 53 31 77 99 93 91 98 87 98 74 23 56 75 38 75 83 79 63 59 64 72 44 64 59 68
59 59 62 63 52 33 27 34 29 32 32 29 26 26 21 20 18 14 19 22 39 43 46 46 76 94 41 105 83 103 90 97 101 98 63 85 93 84 60 75 74 60 69 70
Wind_Direction
263 265 267 268 270 271 273 275 275 276 281 281 282 276 278 281 263 258 243 255 260 238 242 219 233 222 211 218 211 201 203 212 219 225 226 224 222 206 213 205 208 212 202 194
262 265 269 271 271 269 271 274 275 274 276 277 274 269 274 272 268 248 241 252 267 281 251 249 231 224 226 225 209 206 211 210 212 224 228 222 222 214 223 222 221 216 213 206
260 264 265 267 270 272 275 277 276 275 268 258 259 260 261 263 253 237 252 254 271 239 229 228 253 259 236 225 214 211 211 205 209 228 221 228 213 222 216 215 216 216 218 216
260 261 267 243 271 272 277 276 272 249 256 254 258 255 259 253 235 247 256 267 278 272 254 220 245 251 216 242 217 218 218 214 217 223 221 224 218 215 218 217 225 223 219 224
258 261 266 268 270 275 259 249 246 243 249 252 252 240 250 249 233 245 255 268 275 281 250 225 223 234 236 244 233 226 225 225 218 213 235 212 215 228 212 216 220 223 230 227
256 259 263 265 243 244 245 248 243 247 254 245 246 235 242 222 252 250 259 270 273 273 251 245 231 245 236 230 252 239 231 232 230 223 222 237 219 222 225 221 223 215 225 226
245 244 252 248 245 245 246 247 244 254 258 239 231 214 257 235 246 248 246 242 239 248 255 247 242 229 250 245 233 235 235 232 233 229 229 230 234 233 236 223 225 220 231 224
227 235 243 248 250 255 258 258 251 241 240 259 241 246 256 263 278 247 242 244 239 232 259 255 254 247 251 248 254 249 236 243 241 233 233 228 239 224 226 248 228 231 229 226
230 246 249 248 244 247 254 253 264 265 263 259 256 258 254 267 285 320 306 318 324 328 277 271 266 259 263 254 257 249 256 250 248 240 238 231 233 225 235 238 230 234 231 237
228 236 251 255 254 256 263 263 263 258 258 260 264 268 277 279 290 293 289 289 293 304 316 309 312 289 270 262 265 262 258 251 252 245 240 239 234 232 242 240 241 240 245 255
236 252 257 264 267 263 265 266 265 264 264 265 271 278 282 278 290 289 277 292 290 286 286 294 295 290 294 301 283 269 266 264 253 249 254 243 239 235 235 236 238 242 248 238
259 264 268 267 269 269 272 270 268 271 269 270 269 271 276 277 291 291 287 293 285 288 281 281 285 289 292 301 301 296 271 271 264 264 257 251 244 240 236 234 237 240 245 246
277 272 273 273 271 272 274 271 274 273 274 274 275 266 271 273 277 281 273 281 288 300 307 301 302 314 305 307 311 311 310 299 284 273 262 252 251 244 240 238 238 242 238 240
276 277 282 281 275 275 274 274 274 275 275 275 276 274 276 281 283 273 266 276 274 284 301 300 294 324 300 289 283 315 318 309 298 278 273 265 256 251 245 243 240 240 239 244
279 283 283 284 284 279 276 279 279 281 283 286 287 284 284 275 271 253 269 262 267 290 98 275 253 273 284 278 266 288 287 301 295 289 285 267 266 261 253 250 245 243 240 241
285 286 283 284 286 288 290 289 288 270 271 277 274 276 275 271 263 263 264 245 269 119 293 106 123 61 240 262 259 269 296 290 290 267 298 272 265 264 260 254 251 248 244 241
290 292 291 288 287 285 277 286 282 280 280 277 275 275 274 270 267 258 253 150 145 224 236 134 137 201 253 267 265 267 286 281 266 289 268 269 265 262 259 258 256 253 251 247
285 284 284 285 290 290 290 287 285 285 286 283 278 271 271 269 263 259 228 184 161 159 180 186 213 166 233 252 248 259 262 274 272 275 263 262 263 261 260 256 255 255 252 251
288 292 294 294 294 292 290 287 286 285 280 272 268 263 258 260 258 259 256 217 207 171 232 171 218 210 207 235 244 260 263 270 268 270 262 268 261 257 257 257 252 252 254 251
300 298 298 296 294 296 296 294 280 292 294 295 275 259 251 251 248 249 248 199 217 250 264 203 253 217 220 226 229 249 253 254 257 267 256 251 250 245 251 252 254 252 250 250
299 298 299 300 300 295 302 299 301 303 297 300 287 246 248 244 246 244 244 196 243 258 196 231 260 257 222 233 223 235 247 250 245 259 270 256 249 250 250 249 250 252 251 250
298 301 303 305 315 311 309 318 329 326 321 302 302 275 252 249 251 240 235 232 224 272 250 219 259 257 231 228 225 231 239 249 251 249 259 242 250 248 246 239 243 243 236 234
302 305 308 314 316 319 322 321 322 322 331 341 333 310 269 252 256 278 236 231 223 253 218 260 247 266 241 237 225 241 253 254 257 247 264 263 254 246 244 240 237 242 233 209
304 308 309 321 328 317 310 319 319 320 318 325 329 328 323 281 250 278 247 242 236 235 266 251 240 259 239 268 238 248 245 243 252 263 262 268 267 263 242 237 233 212 214 218
308 310 315 321 332 315 320 320 331 331 329 335 334 335 337 327 287 265 252 255 257 239 230 238 240 234 244 239 248 249 250 259 239 255 255 262 250 247 253 240 242 232 219 221
310 310 321 316 330 309 319 325 340 338 342 344 343 341 343 340 329 312 283 273 264 261 259 255 241 245 250 242 257 251 255 258 260 258 258 257 264 264 248 238 236 237 232 223